period_start,C,m1,H,J0,J1,J2,J3,J4,J5,JA,JB,JC,JD,JJ,JK,JN,#
2016-07-07 00:00:01,0.00,0.46,0.00,24.20,28.53,31.20,14.35,43.61,1017.01,2033.26,3357.01,2998.97,3396.00,599.76,593.64,31.87,0000 0000 0000 0000 000000
2016-07-07 00:05:02,-0.01,0.46,0.00,24.17,28.53,31.22,14.38,43.71,1016.82,2033.25,3357.00,2998.90,3396.00,600.31,594.10,31.92,0000 0000 0000 0000 000000
2016-07-07 00:10:03,0.00,0.46,0.00,24.21,28.53,31.22,14.36,43.52,1016.65,2033.19,3356.99,2998.70,3395.96,599.83,593.45,31.97,0000 0000 0000 0000 000000
2016-07-07 00:15:05,0.02,0.47,0.00,24.18,28.54,31.21,14.33,43.62,1016.63,2033.28,3356.85,2998.28,3395.76,600.02,593.78,32.02,0000 0000 0000 0000 000000
2016-07-07 00:20:06,0.03,0.47,0.00,24.17,28.54,31.22,14.38,43.52,1016.64,2033.46,3356.84,2998.20,3395.77,599.94,593.65,32.07,0000 0000 0000 0000 000000
2016-07-07 00:25:07,0.02,0.47,0.00,24.20,28.54,31.20,14.37,43.70,1016.62,2033.67,3356.58,2998.15,3395.50,599.65,593.43,32.12,0000 0000 0000 0000 000000
2016-07-07 00:30:09,0.01,0.47,0.00,24.17,28.54,31.20,14.41,43.69,1016.63,2033.59,3356.18,2998.04,3395.16,600.15,593.88,32.17,0000 0000 0000 0000 000000
2016-07-07 00:35:10,0.13,0.47,0.00,24.17,28.55,31.21,14.40,43.78,1016.65,2033.59,3354.54,2996.71,3393.61,600.08,593.77,32.22,0000 0000 0000 0000 000000
2016-07-07 00:40:11,0.03,0.48,0.00,24.17,28.55,31.21,14.39,43.68,1016.64,2033.28,3352.08,2994.93,3391.21,600.06,593.78,32.27,0000 0000 0000 0000 000000
2016-07-07 00:45:12,0.01,0.48,0.00,24.18,28.55,31.22,14.36,43.67,1016.63,2033.24,3351.99,2994.66,3391.02,599.77,593.36,32.32,0000 0000 0000 0000 000000
2016-07-07 00:50:14,0.01,0.48,0.00,24.21,28.55,31.22,14.32,43.62,1016.63,2033.15,3351.55,2994.04,3391.00,599.96,593.63,32.37,0000 0000 0000 0000 000000
2016-07-07 00:55:15,0.01,0.48,0.00,24.21,28.55,31.23,14.38,43.63,1016.62,2033.20,3351.08,2994.00,3390.88,600.01,593.66,32.42,0000 0000 0000 0000 000000
2016-07-07 01:00:17,0.01,0.48,0.00,24.22,28.55,31.22,14.36,43.55,1016.62,2033.21,3350.90,2993.92,3390.24,600.14,593.75,32.48,0000 0000 0000 0000 000000
2016-07-07 01:05:18,0.03,0.48,0.00,24.22,28.55,31.21,14.44,43.54,1016.62,2033.32,3350.27,2993.56,3390.01,600.13,593.65,32.53,0000 0000 0000 0000 000000
2016-07-07 01:10:19,0.03,0.48,0.00,24.20,28.55,31.21,14.41,43.54,1016.60,2033.43,3350.00,2993.12,3389.98,600.12,593.73,32.58,0000 0000 0000 0000 000000
2016-07-07 01:15:20,0.04,0.49,0.00,24.20,28.55,31.22,14.41,43.62,1016.52,2033.68,3349.43,2992.99,3389.52,600.14,593.75,32.63,0000 0000 0000 0000 000000
2016-07-07 01:20:22,0.01,0.49,0.00,24.24,28.55,31.20,14.37,43.46,1016.56,2033.78,3349.01,2992.97,3389.03,600.08,593.60,32.68,0000 0000 0000 0000 000000
2016-07-07 01:25:24,0.01,0.49,0.00,24.24,28.55,31.20,14.42,43.63,1016.60,2033.87,3349.00,2992.91,3389.00,600.01,593.51,32.73,0000 0000 0000 0000 000000
2016-07-07 01:30:25,0.01,0.49,0.00,24.24,28.55,31.22,14.39,43.45,1016.59,2033.80,3348.80,2992.54,3389.00,599.78,593.37,32.78,0000 0000 0000 0000 000000
2016-07-07 01:35:26,0.03,0.49,0.00,24.25,28.55,31.21,14.35,43.53,1016.62,2033.89,3348.16,2992.09,3388.98,599.77,593.30,32.83,0000 0000 0000 0000 000000
2016-07-07 01:40:27,0.02,0.49,0.00,24.22,28.55,31.21,14.35,43.54,1016.62,2033.97,3347.95,2992.02,3388.40,599.61,593.16,32.88,0000 0000 0000 0000 000000
2016-07-07 01:45:29,-0.00,0.49,0.00,24.25,28.55,31.21,14.40,43.52,1016.60,2033.96,3347.82,2992.00,3388.01,600.14,593.61,32.93,0000 0000 0000 0000 000000
2016-07-07 01:50:30,0.00,0.49,0.00,24.27,28.54,31.20,14.36,43.44,1016.61,2033.96,3347.69,2992.00,3388.00,599.69,593.20,32.98,0000 0000 0000 0000 000000
2016-07-07 01:55:31,0.00,0.49,0.00,24.26,28.54,31.21,14.40,43.33,1016.59,2033.97,3347.41,2992.00,3388.00,600.14,593.68,33.03,0000 0000 0000 0000 000000
2016-07-07 02:00:32,0.03,0.49,0.00,24.27,28.53,31.20,14.40,43.36,1016.62,2033.97,3346.90,2991.57,3387.64,600.01,593.55,33.08,0000 0000 0000 0000 000000
2016-07-07 02:05:33,0.02,0.49,0.00,24.24,28.52,31.23,14.40,43.31,1016.62,2033.99,3346.15,2991.06,3387.05,600.00,593.59,33.13,0000 0000 0000 0000 000000
2016-07-07 02:10:35,-0.00,0.49,0.00,24.27,28.52,31.22,14.40,43.42,1016.62,2033.98,3346.13,2991.01,3387.01,600.46,593.98,33.18,0000 0000 0000 0000 000000
2016-07-07 02:15:36,0.00,0.49,0.00,24.28,28.52,31.20,14.33,43.48,1016.62,2033.98,3346.03,2991.00,3387.00,599.69,593.17,33.23,0000 0000 0000 0000 000000
2016-07-07 02:20:37,0.00,0.49,0.00,24.30,28.52,31.19,14.46,43.47,1016.62,2033.98,3346.01,2991.01,3387.00,600.15,593.63,33.28,0000 0000 0000 0000 000000
2016-07-07 02:25:39,0.00,0.49,0.00,24.30,28.52,31.20,14.39,43.42,1016.62,2033.97,3345.99,2991.00,3386.99,600.05,593.47,33.33,0000 0000 0000 0000 000000
2016-07-07 02:30:40,0.00,0.49,0.00,24.30,28.52,31.20,14.31,43.39,1016.59,2033.98,3345.84,2990.98,3386.92,599.94,593.44,33.39,0000 0000 0000 0000 000000
2016-07-07 02:35:41,0.01,0.49,0.00,24.32,28.52,31.21,14.38,43.38,1016.49,2033.98,3345.41,2990.92,3386.63,599.96,593.27,33.44,0000 0000 0000 0000 000000
2016-07-07 02:40:42,0.02,0.50,0.00,24.32,28.52,31.20,14.37,43.38,1016.38,2033.99,3345.05,2990.69,3386.20,600.11,593.42,33.49,0000 0000 0000 0000 000000
2016-07-07 02:45:44,0.01,0.50,0.00,24.33,28.52,31.20,14.31,43.18,1016.29,2033.96,3345.02,2990.28,3386.04,599.62,592.82,33.54,0000 0000 0000 0000 000000
2016-07-07 02:50:45,0.00,0.50,0.00,24.35,28.52,31.19,14.40,43.48,1016.26,2033.97,3344.99,2990.10,3386.00,600.56,593.64,33.59,0000 0000 0000 0000 000000
2016-07-07 02:55:46,0.00,0.50,0.00,24.35,28.52,31.20,14.35,43.49,1016.20,2033.98,3344.99,2990.07,3386.00,600.04,593.13,33.64,0000 0000 0000 0000 000000
2016-07-07 03:00:47,0.00,0.50,0.00,24.37,28.53,31.20,14.41,43.52,1016.14,2033.98,3344.99,2990.03,3386.00,600.36,593.30,33.69,0000 0000 0000 0000 000000
2016-07-07 03:05:48,0.00,0.50,0.00,24.40,28.55,31.19,14.27,43.37,1016.16,2033.98,3344.99,2990.00,3385.98,599.44,592.40,33.74,0000 0000 0000 0000 000000
2016-07-07 03:10:49,0.00,0.50,0.00,24.41,28.55,31.19,14.36,43.33,1016.13,2033.97,3344.98,2990.00,3385.98,600.06,592.91,33.79,0000 0000 0000 0000 000000
2016-07-07 03:15:51,0.00,0.50,0.00,24.43,28.57,31.19,14.37,43.59,1016.13,2033.98,3344.98,2990.00,3385.99,600.23,593.11,33.84,0000 0000 0000 0000 000000
2016-07-07 03:20:52,-0.00,0.50,0.00,24.44,28.57,31.20,14.38,43.52,1016.13,2033.89,3344.98,2989.99,3385.84,600.18,593.03,33.89,0000 0000 0000 0000 000000
2016-07-07 03:25:53,-0.01,0.50,0.00,24.44,28.59,31.21,14.30,43.84,1016.12,2033.68,3344.95,2989.96,3385.28,599.58,592.39,33.94,0000 0000 0000 0000 000000
2016-07-07 03:30:55,-0.05,0.49,0.00,24.43,28.60,31.21,14.37,43.53,1016.08,2033.12,3344.98,2989.88,3385.02,600.13,592.95,33.99,0000 0000 0000 0000 000000
2016-07-07 03:35:56,-0.00,0.49,0.00,24.44,28.60,31.22,14.39,43.66,1015.87,2033.05,3344.96,2989.84,3385.01,600.51,593.22,34.04,0000 0000 0000 0000 000000
2016-07-07 03:40:57,0.01,0.49,0.00,24.45,28.61,31.23,14.35,43.64,1015.66,2033.01,3344.82,2989.62,3385.00,599.83,592.40,34.09,0000 0000 0000 0000 000000
2016-07-07 03:45:59,0.02,0.49,0.00,24.47,28.62,31.23,14.45,43.81,1015.64,2033.00,3344.38,2989.16,3385.00,600.51,592.99,34.14,0000 0000 0000 0000 000000
2016-07-07 03:51:00,0.00,0.50,0.00,24.50,28.62,31.24,14.43,43.67,1015.64,2033.00,3344.11,2989.05,3384.98,600.49,593.06,34.19,0000 0000 0000 0000 000000
2016-07-07 03:56:01,0.00,0.50,0.00,24.51,28.64,31.23,14.33,43.60,1015.64,2033.00,3344.07,2989.01,3384.97,600.00,592.49,34.24,0000 0000 0000 0000 000000
2016-07-07 04:01:03,0.00,0.50,0.00,24.51,28.65,31.24,14.33,43.57,1015.64,2033.00,3344.02,2989.00,3384.96,599.89,592.43,34.29,0000 0000 0000 0000 000000
2016-07-07 04:06:04,0.00,0.50,0.00,24.52,28.66,31.25,14.39,43.64,1015.64,2033.00,3344.01,2989.00,3384.90,600.46,592.87,34.34,0000 0000 0000 0000 000000
2016-07-07 04:11:05,0.00,0.50,0.00,24.54,28.67,31.26,14.31,43.65,1015.64,2033.00,3344.00,2989.00,3384.60,599.54,591.95,34.40,0000 0000 0000 0000 000000
2016-07-07 04:16:07,0.00,0.50,0.00,24.54,28.68,31.26,14.36,43.67,1015.64,2032.99,3344.00,2988.98,3384.12,600.01,592.42,34.45,0000 0000 0000 0000 000000
2016-07-07 04:21:08,0.00,0.50,0.00,24.55,28.70,31.27,14.31,43.84,1015.62,2032.99,3343.95,2988.98,3384.03,599.98,592.34,34.50,0000 0000 0000 0000 000000
2016-07-07 04:26:09,0.00,0.50,0.00,24.55,28.70,31.28,14.34,43.67,1015.61,2032.98,3343.71,2988.85,3384.00,599.97,592.32,34.55,0000 0000 0000 0000 000000
2016-07-07 04:31:10,0.00,0.50,0.00,24.57,28.70,31.29,14.34,43.60,1015.39,2032.99,3343.62,2988.84,3384.00,600.06,592.24,34.60,0000 0000 0000 0000 000000
2016-07-07 04:36:12,0.01,0.50,0.00,24.57,28.71,31.29,14.37,43.74,1015.43,2032.95,3343.11,2988.37,3383.99,600.09,592.28,34.65,0000 0000 0000 0000 000000
2016-07-07 04:41:13,0.01,0.50,0.00,24.59,28.72,31.30,14.29,43.59,1015.54,2032.92,3343.05,2988.09,3383.98,599.85,592.10,34.70,0000 0000 0000 0000 000000
2016-07-07 04:46:14,0.00,0.50,0.00,24.60,28.72,31.31,14.36,43.69,1015.43,2032.93,3343.00,2988.05,3383.97,600.05,592.18,34.75,0000 0000 0000 0000 000000
2016-07-07 04:51:15,0.00,0.50,0.00,24.60,28.72,31.31,14.28,43.51,1015.19,2032.92,3342.99,2988.02,3383.81,599.94,591.86,34.80,0000 0000 0000 0000 000000
2016-07-07 04:56:16,-0.00,0.50,0.00,24.61,28.74,31.32,14.29,43.67,1015.16,2032.79,3342.92,2988.00,3383.45,600.26,592.22,34.85,0000 0000 0000 0000 000000
2016-07-07 05:01:17,-0.00,0.50,0.00,24.62,28.75,31.33,14.38,43.77,1015.14,2032.80,3342.92,2988.00,3383.21,600.25,592.21,34.90,0000 0000 0000 0000 000000
2016-07-07 05:06:19,-0.01,0.50,0.00,24.64,28.75,31.33,14.36,43.76,1014.86,2032.49,3342.60,2987.99,3383.02,599.88,591.61,34.95,0000 0000 0000 0000 000000
2016-07-07 05:11:20,-0.01,0.50,0.00,24.65,28.77,31.34,14.27,43.58,1014.66,2032.34,3342.37,2987.99,3383.00,599.74,591.28,35.00,0000 0000 0000 0000 000000
2016-07-07 05:16:22,0.02,0.50,0.00,24.67,28.77,31.35,14.35,43.69,1014.66,2032.42,3342.07,2987.98,3383.00,600.24,591.84,35.05,0000 0000 0000 0000 000000
2016-07-07 05:21:23,-0.03,0.50,0.00,24.69,28.78,31.36,14.32,43.66,1014.66,2032.18,3342.01,2987.89,3382.99,600.08,591.65,35.10,0000 0000 0000 0000 000000
2016-07-07 05:26:24,0.00,0.50,0.00,24.70,28.80,31.37,14.33,43.70,1014.64,2032.08,3342.00,2987.68,3382.98,599.81,591.33,35.15,0000 0000 0000 0000 000000
2016-07-07 05:31:25,0.01,0.50,0.00,24.71,28.81,31.38,14.29,43.73,1014.42,2032.09,3341.99,2987.28,3382.89,600.11,591.44,35.20,0000 0000 0000 0000 000000
2016-07-07 05:36:27,0.01,0.50,0.00,24.73,28.82,31.38,14.32,43.73,1014.30,2032.01,3341.98,2987.05,3382.33,600.03,591.26,35.25,0000 0000 0000 0000 000000
2016-07-07 05:41:28,0.00,0.50,0.00,24.75,28.82,31.39,14.24,43.64,1014.20,2032.02,3341.91,2987.01,3382.12,599.77,590.90,35.30,0000 0000 0000 0000 000000
2016-07-07 05:46:29,0.01,0.50,0.00,24.76,28.84,31.40,14.30,43.47,1014.19,2032.01,3341.34,2987.00,3382.04,600.10,591.18,35.36,0000 0000 0000 0000 000000
2016-07-07 05:51:31,0.00,0.50,0.00,24.77,28.85,31.40,14.26,43.50,1014.18,2032.01,3341.03,2987.00,3382.00,599.73,590.80,35.41,0000 0000 0000 0000 000000
2016-07-07 05:56:32,-0.00,0.50,0.00,24.77,28.85,31.41,14.26,43.49,1014.19,2032.01,3341.00,2986.99,3382.00,599.96,591.06,35.46,0000 0000 0000 0000 000000
2016-07-07 06:01:34,0.00,0.50,0.00,24.79,28.85,31.41,14.40,43.58,1014.18,2032.00,3341.00,2986.98,3381.98,600.46,591.34,35.51,0000 0000 0000 0000 000000
2016-07-07 06:06:35,0.00,0.50,0.00,24.80,28.87,31.43,14.40,43.52,1014.18,2032.01,3340.98,2986.96,3381.98,600.12,591.14,35.56,0000 0000 0000 0000 000000
2016-07-07 06:11:36,0.00,0.50,0.00,24.81,28.87,31.42,14.33,43.57,1014.16,2032.01,3340.74,2986.88,3381.92,599.93,590.99,35.61,0000 0000 0000 0000 000000
2016-07-07 06:16:37,0.04,0.50,0.00,24.83,28.87,31.43,14.26,43.47,1013.98,2032.00,3340.28,2986.31,3381.39,599.99,590.95,35.66,0000 0000 0000 0000 000000
2016-07-07 06:21:38,0.00,0.50,0.00,24.84,28.87,31.44,14.27,43.45,1013.76,2032.00,3340.11,2986.07,3381.08,599.78,590.40,35.71,0000 0000 0000 0000 000000
2016-07-07 06:26:39,0.00,0.50,0.00,24.85,28.89,31.45,14.29,43.57,1013.72,2032.00,3340.06,2986.01,3381.01,600.17,590.81,35.76,0000 0000 0000 0000 000000
2016-07-07 06:31:41,-0.00,0.50,0.00,24.87,28.90,31.47,14.30,43.73,1013.73,2032.00,3340.10,2986.01,3381.00,600.06,590.72,35.81,0000 0000 0000 0000 000000
2016-07-07 06:36:42,0.00,0.50,0.00,24.87,28.90,31.45,14.27,43.36,1013.71,2032.00,3340.02,2986.00,3381.00,600.15,590.77,35.86,0000 0000 0000 0000 000000
2016-07-07 06:41:43,0.00,0.50,0.00,24.89,28.91,31.47,14.26,43.52,1013.73,2032.00,3339.94,2985.99,3380.99,599.86,590.68,35.91,0000 0000 0000 0000 000000
2016-07-07 06:46:45,0.00,0.50,0.00,24.90,28.92,31.48,14.28,43.63,1013.70,2032.00,3339.75,2985.97,3380.93,599.94,590.52,35.96,0000 0000 0000 0000 000000
2016-07-07 06:51:46,0.01,0.50,0.00,24.92,28.92,31.48,14.26,43.58,1013.67,2032.00,3339.50,2985.91,3380.56,600.07,590.55,36.01,0000 0000 0000 0000 000000
2016-07-07 06:56:47,0.01,0.50,0.00,24.94,28.92,31.49,14.24,43.51,1013.67,2032.00,3339.23,2985.81,3380.26,599.80,590.25,36.06,0000 0000 0000 0000 000000
2016-07-07 07:01:48,0.02,0.50,0.00,24.96,28.92,31.49,14.29,43.42,1013.69,2031.98,3339.01,2985.24,3380.02,599.86,590.31,36.11,0000 0000 0000 0000 000000
2016-07-07 07:06:50,0.00,0.50,0.00,24.97,28.93,31.49,14.34,43.31,1013.69,2031.99,3338.99,2985.01,3380.00,600.10,590.49,36.16,0000 0000 0000 0000 000000
2016-07-07 07:11:51,0.00,0.50,0.00,24.97,28.93,31.49,14.37,43.36,1013.68,2031.98,3338.93,2985.00,3380.00,599.86,590.24,36.22,0000 0000 0000 0000 000000
2016-07-07 07:16:52,0.00,0.50,0.00,25.00,28.93,31.50,14.29,43.36,1013.57,2031.96,3338.54,2985.00,3379.95,599.92,590.15,36.27,0000 0000 0000 0000 000000
2016-07-07 07:21:53,0.00,0.51,0.00,25.00,28.93,31.51,14.34,43.53,1013.48,2031.98,3338.15,2985.00,3379.92,600.15,590.36,36.32,0000 0000 0000 0000 000000
2016-07-07 07:26:55,0.00,0.51,0.00,25.02,28.93,31.50,14.22,43.42,1013.48,2031.97,3338.06,2984.99,3379.79,599.73,589.83,36.37,0000 0000 0000 0000 000000
2016-07-07 07:31:56,0.01,0.51,0.00,25.02,28.93,31.50,14.31,43.33,1013.38,2031.98,3338.01,2984.97,3379.36,600.16,590.26,36.42,0000 0000 0000 0000 000000
2016-07-07 07:36:57,0.05,0.51,0.00,25.04,28.93,31.51,14.28,43.33,1013.30,2031.98,3337.54,2984.39,3378.69,599.82,589.91,36.47,0000 0000 0000 0000 000000
2016-07-07 07:41:58,0.01,0.51,0.00,25.05,28.93,31.51,14.35,43.41,1013.26,2031.97,3337.01,2983.98,3378.03,600.04,590.04,36.52,0000 0000 0000 0000 000000
2016-07-07 07:47:00,0.00,0.51,0.00,25.05,28.93,31.51,14.19,43.50,1013.22,2031.98,3337.00,2983.93,3378.00,599.55,589.48,36.57,0000 0000 0000 0000 000000
2016-07-07 07:52:01,0.00,0.51,0.00,25.06,28.93,31.51,14.34,43.60,1013.33,2031.98,3337.00,2983.83,3378.00,599.94,589.95,36.62,0000 0000 0000 0000 000000
2016-07-07 07:57:02,0.03,0.51,0.00,25.07,28.93,31.52,14.23,43.45,1013.47,2031.99,3336.59,2983.41,3377.99,599.95,590.03,36.67,0000 0000 0000 0000 000000
2016-07-07 08:02:03,0.00,0.51,0.00,25.07,28.92,31.53,14.28,43.43,1013.66,2031.99,3336.06,2983.10,3377.98,600.16,590.27,36.72,0000 0000 0000 0000 000000
2016-07-07 08:07:05,0.00,0.51,0.00,25.09,28.92,31.52,14.16,43.38,1013.48,2031.99,3336.04,2983.03,3377.97,599.70,589.84,36.77,0000 0000 0000 0000 000000
2016-07-07 08:12:06,0.00,0.51,0.00,25.09,28.92,31.52,14.31,43.46,1013.41,2031.99,3336.02,2983.02,3377.85,600.05,590.03,36.82,0000 0000 0000 0000 000000
2016-07-07 08:17:07,0.00,0.51,0.00,25.10,28.92,31.54,14.33,43.43,1013.53,2031.99,3336.00,2983.00,3377.69,600.15,590.21,36.87,0000 0000 0000 0000 000000
2016-07-07 08:22:08,0.00,0.51,0.00,25.10,28.92,31.54,14.31,43.35,1013.26,2031.99,3335.95,2983.00,3377.40,600.30,590.12,36.92,0000 0000 0000 0000 000000
2016-07-07 08:27:10,0.01,0.51,0.00,25.09,28.92,31.53,14.32,43.30,1013.20,2031.99,3335.67,2983.00,3377.15,600.60,590.49,36.97,0000 0000 0000 0000 000000
2016-07-07 08:32:11,0.00,0.51,0.00,25.10,28.91,31.52,14.26,43.24,1013.20,2031.99,3335.24,2983.00,3377.04,599.87,589.77,37.02,0000 0000 0000 0000 000000
2016-07-07 08:37:13,0.00,0.51,0.00,25.10,28.90,31.52,14.29,43.36,1013.21,2031.99,3335.01,2982.97,3377.00,600.00,589.84,37.07,0000 0000 0000 0000 000000
2016-07-07 08:42:14,0.00,0.51,0.00,25.12,28.90,31.52,14.29,43.29,1013.25,2031.99,3335.01,2982.96,3377.00,600.11,590.03,37.12,0000 0000 0000 0000 000000
2016-07-07 08:47:15,0.00,0.51,0.00,25.13,28.90,31.52,14.18,43.27,1013.26,2031.99,3335.00,2982.95,3377.00,599.90,589.80,37.17,0000 0000 0000 0000 000000
2016-07-07 08:52:16,0.01,0.51,0.00,25.13,28.90,31.53,14.27,43.22,1013.46,2031.99,3334.98,2982.89,3377.00,600.24,590.20,37.23,0000 0000 0000 0000 000000
2016-07-07 08:57:18,-0.00,0.51,0.00,25.15,28.90,31.52,14.30,43.27,1013.57,2031.99,3334.97,2982.83,3376.99,600.25,590.22,37.28,0000 0000 0000 0000 000000
2016-07-07 09:02:19,0.01,0.51,0.00,25.15,28.90,31.51,14.31,43.19,1013.69,2031.99,3334.86,2982.58,3376.96,600.03,590.02,37.33,0000 0000 0000 0000 000000
2016-07-07 09:07:20,0.01,0.51,0.00,25.16,28.90,31.52,14.24,43.26,1013.66,2031.99,3334.56,2982.20,3376.91,600.17,590.17,37.38,0000 0000 0000 0000 000000
2016-07-07 09:12:21,0.01,0.51,0.00,25.16,28.90,31.53,14.27,43.13,1013.68,2031.99,3334.36,2982.10,3376.84,599.85,589.87,37.43,0000 0000 0000 0000 000000
2016-07-07 09:17:22,0.01,0.52,0.00,25.15,28.90,31.52,14.31,43.17,1013.67,2031.99,3334.10,2982.05,3376.47,600.14,590.16,37.48,0000 0000 0000 0000 000000
2016-07-07 09:22:23,0.00,0.52,0.00,25.15,28.90,31.52,14.26,43.09,1013.69,2031.99,3334.02,2982.04,3376.24,599.95,589.89,37.53,0000 0000 0000 0000 000000
2016-07-07 09:27:25,0.00,0.52,0.00,25.15,28.90,31.53,14.22,43.11,1013.69,2031.99,3334.00,2982.01,3376.05,600.26,590.25,37.58,0000 0000 0000 0000 000000
2016-07-07 09:32:26,0.00,0.52,0.00,25.16,28.90,31.52,14.29,43.23,1013.69,2031.99,3333.98,2982.00,3376.02,600.02,590.08,37.63,0000 0000 0000 0000 000000
2016-07-07 09:37:27,0.00,0.52,0.00,25.16,28.90,31.53,14.32,43.19,1013.69,2031.99,3333.90,2982.00,3376.00,600.23,590.21,37.68,0000 0000 0000 0000 000000
2016-07-07 09:42:28,0.00,0.52,0.00,25.16,28.90,31.52,14.27,43.10,1013.70,2031.99,3333.52,2982.00,3376.00,599.79,589.92,37.73,0000 0000 0000 0000 000000
2016-07-07 09:47:30,0.00,0.52,0.00,25.15,28.90,31.52,14.23,43.10,1013.69,2031.99,3333.08,2981.99,3376.00,599.75,589.77,37.78,0000 0000 0000 0000 000000
2016-07-07 09:52:31,0.00,0.52,0.00,25.15,28.90,31.52,14.29,43.11,1013.69,2032.00,3333.01,2981.98,3375.99,600.13,590.11,37.83,0000 0000 0000 0000 000000
2016-07-07 09:57:32,0.00,0.52,0.00,25.15,28.90,31.53,14.26,43.16,1013.69,2032.01,3333.00,2981.97,3375.97,599.91,590.08,37.88,0000 0000 0000 0000 000000
2016-07-07 10:02:34,0.00,0.52,0.00,25.15,28.90,31.52,14.29,43.32,1013.83,2032.00,3333.00,2981.94,3375.92,600.10,590.27,37.93,0000 0000 0000 0000 000000
2016-07-07 10:07:35,0.02,0.52,0.00,25.15,28.90,31.54,14.30,43.34,1013.69,2032.01,3332.95,2981.48,3375.37,600.23,590.39,37.98,0000 0000 0000 0000 000000
2016-07-07 10:12:36,0.01,0.52,0.00,25.15,28.90,31.53,14.29,43.45,1013.69,2032.00,3332.80,2981.16,3375.09,599.79,589.88,38.03,0000 0000 0000 0000 000000
2016-07-07 10:17:37,0.01,0.52,0.00,25.16,28.90,31.54,14.27,43.57,1013.69,2032.00,3332.66,2981.06,3375.01,600.14,590.04,38.08,0000 0000 0000 0000 000000
2016-07-07 10:22:39,0.00,0.52,0.00,25.16,28.90,31.52,14.24,43.47,1013.69,2032.00,3332.39,2981.03,3375.00,599.87,589.90,38.14,0000 0000 0000 0000 000000
2016-07-07 10:27:40,0.00,0.52,0.00,25.16,28.90,31.52,14.28,43.48,1013.69,2032.00,3332.06,2981.00,3375.00,599.93,589.97,38.19,0000 0000 0000 0000 000000
2016-07-07 10:32:41,0.00,0.52,0.00,25.15,28.90,31.53,14.28,43.43,1013.69,2032.00,3332.01,2981.00,3374.99,599.78,589.87,38.24,0000 0000 0000 0000 000000
2016-07-07 10:37:42,0.00,0.52,0.00,25.14,28.90,31.54,14.31,43.39,1013.70,2032.00,3332.00,2980.99,3374.87,600.25,590.28,38.29,0000 0000 0000 0000 000000
2016-07-07 10:42:43,0.00,0.52,0.00,25.14,28.90,31.54,14.27,43.47,1013.70,2032.00,3331.96,2980.96,3374.40,599.89,590.03,38.34,0000 0000 0000 0000 000000
2016-07-07 10:47:45,0.03,0.52,0.00,25.14,28.90,31.54,14.24,43.37,1013.70,2032.00,3331.39,2980.52,3374.03,600.25,590.33,38.39,0000 0000 0000 0000 000000
2016-07-07 10:52:46,0.01,0.52,0.00,25.13,28.90,31.54,14.30,43.27,1013.71,2032.00,3331.03,2980.10,3374.00,600.07,590.15,38.44,0000 0000 0000 0000 000000
2016-07-07 10:57:47,0.00,0.52,0.00,25.14,28.90,31.55,14.16,43.38,1013.69,2032.00,3331.02,2980.07,3374.00,599.45,589.59,38.49,0000 0000 0000 0000 000000
2016-07-07 11:02:49,0.00,0.52,0.00,25.13,28.90,31.54,14.28,43.38,1013.69,2032.00,3330.98,2980.01,3373.92,599.84,590.03,38.54,0000 0000 0000 0000 000000
2016-07-07 11:07:50,0.03,0.52,0.00,25.12,28.91,31.55,14.30,43.41,1013.69,2032.00,3330.23,2979.81,3373.12,599.76,589.85,38.59,0000 0000 0000 0000 000000
2016-07-07 11:12:52,0.06,0.53,0.00,25.12,28.92,31.57,14.31,43.34,1013.70,2032.00,3329.49,2978.74,3372.30,599.80,589.89,38.64,0000 0000 0000 0000 000000
2016-07-07 11:17:53,0.07,0.53,0.00,25.11,28.92,31.55,14.32,43.42,1013.70,2032.00,3328.18,2977.59,3370.87,600.10,589.98,38.69,0000 0000 0000 0000 000000
2016-07-07 11:22:54,0.03,0.53,0.00,25.12,28.92,31.54,14.31,43.48,1013.69,2032.00,3327.18,2976.94,3370.03,600.12,590.29,38.74,0000 0000 0000 0000 000000
2016-07-07 11:27:56,0.02,0.53,0.00,25.11,28.92,31.54,14.22,43.46,1013.69,2032.00,3326.98,2976.30,3369.79,599.77,589.88,38.79,0000 0000 0000 0000 000000
2016-07-07 11:32:57,0.02,0.54,0.00,25.12,28.92,31.54,14.37,43.48,1013.69,2032.00,3326.73,2976.03,3369.14,600.49,590.58,38.84,0000 0000 0000 0000 000000
2016-07-07 11:37:59,0.00,0.54,0.00,25.12,28.92,31.55,14.27,43.42,1013.69,2032.00,3326.09,2975.98,3368.99,600.08,590.19,38.89,0000 0000 0000 0000 000000
2016-07-07 11:43:00,0.01,0.54,0.00,25.10,28.92,31.55,14.29,43.41,1013.68,2032.00,3326.00,2975.84,3368.76,599.94,590.03,38.94,0000 0000 0000 0000 000000
2016-07-07 11:48:02,0.03,0.54,0.00,25.10,28.92,31.55,14.20,43.38,1013.62,2032.00,3325.92,2975.29,3368.14,599.88,589.98,38.99,0000 0000 0000 0000 000000
2016-07-07 11:53:03,0.01,0.54,0.00,25.10,28.92,31.55,14.31,43.38,1013.44,2032.00,3325.33,2975.01,3368.00,600.32,590.31,39.05,0000 0000 0000 0000 000000
2016-07-07 11:58:04,0.00,0.54,0.00,25.10,28.92,31.56,14.22,43.31,1013.25,2031.99,3325.01,2974.97,3367.86,600.10,590.01,39.10,0000 0000 0000 0000 000000
2016-07-07 12:03:06,0.03,0.54,0.00,25.09,28.92,31.56,14.26,43.44,1013.21,2031.98,3324.97,2974.41,3367.11,600.08,589.95,39.15,0000 0000 0000 0000 000000
2016-07-07 12:08:07,0.02,0.54,0.00,25.09,28.92,31.56,14.34,43.41,1013.20,2031.99,3324.31,2974.02,3367.00,600.04,589.95,39.20,0000 0000 0000 0000 000000
2016-07-07 12:13:08,0.00,0.54,0.00,25.08,28.92,31.55,14.24,43.16,1013.20,2031.99,3324.01,2973.99,3366.82,599.97,589.87,39.25,0000 0000 0000 0000 000000
2016-07-07 12:18:09,0.02,0.54,0.00,25.07,28.92,31.56,14.22,43.23,1013.20,2031.99,3323.83,2973.85,3366.11,599.79,589.73,39.30,0000 0000 0000 0000 000000
2016-07-07 12:23:11,0.02,0.54,0.00,25.07,28.92,31.56,14.32,43.35,1013.20,2031.99,3323.15,2973.14,3366.00,600.20,590.13,39.35,0000 0000 0000 0000 000000
2016-07-07 12:28:12,0.00,0.55,0.00,25.07,28.92,31.54,14.24,43.35,1013.20,2031.99,3322.99,2973.00,3365.81,599.95,589.87,39.40,0000 0000 0000 0000 000000
2016-07-07 12:33:13,0.01,0.55,0.00,25.07,28.93,31.54,14.25,43.30,1013.21,2031.99,3322.92,2973.00,3365.12,599.75,589.64,39.45,0000 0000 0000 0000 000000
2016-07-07 12:38:15,0.00,0.55,0.00,25.07,28.93,31.55,14.24,43.36,1013.20,2031.99,3322.77,2972.92,3365.00,599.76,589.70,39.50,0000 0000 0000 0000 000000
2016-07-07 12:43:16,0.03,0.55,0.00,25.09,28.93,31.56,14.30,43.33,1013.20,2031.99,3322.17,2972.44,3364.97,600.11,589.99,39.55,0000 0000 0000 0000 000000
2016-07-07 12:48:18,0.01,0.55,0.00,25.10,28.94,31.55,14.31,43.20,1013.20,2031.99,3322.00,2972.02,3364.44,600.26,590.10,39.60,0000 0000 0000 0000 000000
2016-07-07 12:53:19,0.00,0.55,0.00,25.12,28.94,31.56,14.30,43.40,1013.20,2031.99,3321.93,2971.99,3364.01,600.27,590.07,39.65,0000 0000 0000 0000 000000